{"data":{"norad_id":63033,"intl_designator":"2025-034E","name":"STARLINK-32772","alt_names":[],"object_type":"PAYLOAD","status":"ACTIVE","operator":null,"country":"US","launch_date":"2025-02-18","launch_site_code":"AFETR","launch_vehicle":null,"mission":null,"orbit_class":"UNKNOWN","rcs_meters":null,"size_class":null,"mass_kg":null,"dimensions":null,"purposes":["comms"],"wikipedia_slug":null,"has_3d_model":false,"image_url":null,"decayed_at":null,"tle_current":{"epoch":"2026-05-24T18:04:17.331168Z","epoch_age_seconds":89721,"freshness":"FRESH","line1":"1 63033U 25034E   26144.75297837  .00024894  00000+0  84996-3 0  9999","line2":"2 63033  53.1582 264.7384 0001034  73.2175 286.8939 15.30193949 70734","mean_motion":15.30193949,"eccentricity":0.0001034,"inclination_deg":53.1582,"raan_deg":264.7384,"arg_perigee_deg":73.2175,"mean_anomaly_deg":286.8939,"bstar":0.00084996,"rev_number":7073,"period_min":94.105717836687,"perigee_km":474.52449820203,"apogee_km":475.94177514629,"semimajor_km":6853.3701366742,"source":"CELESTRAK","updated_at":"2026-05-25T13:38:19.865900Z"}}}